Location: Newark
(7.0858°N, 171.3717°E)
Time: 07:14:32
(UTC+00:00)

Courier 1B - Pass Details

Date: 04 December 2020
Orbit: 962 x 1209 km, 28.3° (Epoch: 20 January)

Event Time Altitude Azimuth Distance (km) Brightness Sun altitude
Rises 16:54:05 0° 282° (WNW) 3,966 - -23.7°
Reaches altitude 10° 16:57:05 10° 274° (W) 3,041 - -23.0°
Exits shadow 17:00:55 27° 250° (WSW) 2,087 8.8 -22.1°
Maximum altitude 17:03:52 35° 210° (SSW) 1,800 8.8 -21.4°
Drops below altitude 10° 17:10:52 10° 147° (SSE) 3,138 10.9 -19.8°
Sets 17:14:02 0° 138° (SE) 4,106 11.9 -19.1°
